Regional Weather Roundup
Issued by NWS

Home | Current Version | Previous Version | Text Only | Print | Product List | Glossary On
Versions: 1 2 3 4 5 6 7 8 9 10 11 12 13 14 15 16 17 18 19 20 21 22 23 24 25 26 27 28 29 30 31 32 33 34 35 36 37 38 39 40 41 42 43 44 45 46 47 48 49 50
000
ASUS45 KBOU 260407
RWRCO

WEATHER ROUNDUP FOR COLORADO
NATIONAL WEATHER SERVICE DENVER/BOULDER CO
1000 PM MDT MON MAY 25 2015

NOTE: "FAIR" INDICATES FEW OR NO CLOUDS BELOW 12000 FEET WITH NO
SIGNIFICANT WEATHER AND/OR OBSTRUCTIONS TO VISIBILITY.

COZ001>005-013-030-031-260500-
...NORTHWEST COLORADO...

CITY           SKY/WX    TMP DP  RH WIND       PRES   REMARKS
CRAIG          MOCLDY   N/A N/A N/A S5        30.07R
HAYDEN         MOCLDY    46  39  76 SE3       30.08R
MEEKER         CLOUDY    50  42  74 E8        30.07R
MOUNT WERNER   NOT AVBL
STEAMBOAT SPGS CLOUDY    44  41  89 E5        30.09R
WALDEN         CLOUDY    37  36  93 CALM      30.15R
$$

COZ006>008-011-260500-
...WEST CENTRAL VALLEYS...

CITY           SKY/WX    TMP DP  RH WIND       PRES   REMARKS
GRAND JUNCTION PTCLDY    54  47  77 VRB3      29.99R
MONTROSE       PTCLDY    52  42  69 SE10      30.07R
EAGLE          CLOUDY    50  45  81 CALM      30.11R
RIFLE          HVY RAIN  50  47  89 N3        30.08R FOG
DELTA          PTCLDY    56  47  73 MISG      30.04R
NUCLA          PTCLDY    50  43  76 E7        30.11R
$$

COZ017>023-064>068-260500-
...SOUTHWEST COLORADO...

CITY           SKY/WX    TMP DP  RH WIND       PRES   REMARKS
DURANGO        CLEAR     47  42  83 SW3       30.09R
CORTEZ         MOCLDY    49  45  86 NE6       30.08R
PAGOSA SPRINGS CLEAR     43  41  94 CALM      30.13R
TELLURIDE      PTCLDY    41  38  87 SE7       30.21R
WOLF CREEK PAS NOT AVBL
$$

COZ009-010-012-014-032>034-037-058>063-260500-
...CENTRAL COLORADO...

CITY           SKY/WX    TMP DP  RH WIND       PRES   REMARKS
ASPEN          LGT RAIN  44  40  85 NW14G22   30.13R
BUENA VISTA    PTCLDY    48  33  57 NW12G20   30.09R
COPPER MTN     SNOW      34  30  86 W17       30.26R VSB<1/4 WCI  23
BERTHOUD PASS  HAZE      27  19  74 NW14G21   30.27R VSB<1/4 WCI  15
COTTONWOOD PAS PTCLDY    45  28  53 W10G18    30.17R
GUNNISON       PTCLDY    46  34  61 NW5       30.14R
KREMMLING      CLOUDY    48  36  61 W8G20     30.12R
LEADVILLE      CLOUDY    35  34  96 NW3       30.18R
SALIDA         PTCLDY    51  41  67 SE7       30.15R
SUNLIGHT       SNOW      36  36 100 CALM      30.26R VSB 1/2
WILKERSON PASS CLOUDY    34  30  86 NW7       30.25R WCI  28
$$

COZ069>075-260500-
...SAN LUIS VALLEY/SANGRE DE CRISTO MOUNTAINS...

CITY           SKY/WX    TMP DP  RH WIND       PRES   REMARKS
ALAMOSA        MOCLDY    47  39  74 CALM      30.08R
LA VETA PASS   PTCLDY   N/A N/A N/A MISG      30.17R
SAGUACHE       CLOUDY    50  34  53 NW6       30.10R
$$

COZ035-036-038>040-260500-
...NORTHERN COLORADO FRONT RANGE...

CITY           SKY/WX    TMP DP  RH WIND       PRES   REMARKS
DENVER INTL AP CLOUDY    53  45  74 SW7       30.01R
DMNS CITY PARK   N/A     51  47  89 S3        30.03R
AURORA         MOCLDY    51  48  89 SW9       30.04R
FRONT RANGE AP NOT AVBL
ERIE MUNI ARPT MOCLDY    50  48  92 CALM      30.01R
BOULDER MUN AP MOCLDY    52  50  93 SW6       30.01R
CENTENNIAL     MOCLDY    48  47  96 SW6       30.05R
BROOMFIELD     MOCLDY    50  48  93 S6        30.03R
FORT COLLINS   MOCLDY    52  46  82 CALM      30.01R
LONGMONT       MOCLDY    52  48  86 NW3       30.02R
$$

COZ041-046-047-076>085-087-088-260500-
...PIKES PEAK/PALMER DIVIDE AND SOUTHERN FOOTHILLS...

CITY           SKY/WX    TMP DP  RH WIND       PRES   REMARKS
COLO. SPRINGS  TSTM      51  45  79 N13       30.06R
A. F. ACADEMY  LGT RAIN  47  43  87 N6        30.06S
ELLICOTT       NOT AVBL
FALCON         CLOUDY    45  40  84 NW9G24    30.10R
FORT CARSON    CLEAR     48  48  99 N15       30.04R
LIMON          CLOUDY    52  47  83 NW7       30.02R
MONUMENT HILL  NOT AVBL
TRINIDAD       CLEAR     49  44  83 W5        29.99R
$$

COZ042>045-048>051-090-091-260500-
...NORTHEAST COLORADO...

CITY           SKY/WX    TMP DP  RH WIND       PRES   REMARKS
GREELEY ARPT   MOCLDY    50  46  87 NW5       30.00R
AKRON          PTCLDY    48  45  89 W8        29.96S
BURLINGTON     MOCLDY    52  47  83 W8        29.96R
WRAY           CLOUDY    51  49  92 W5        29.94R
STERLING       PTCLDY    48  46  93 W6        29.94R
HOLYOKE        NOT AVBL
FORT MORGAN    PTCLDY    50  44  80 W6        29.98R
$$

COZ086-089-092>099-260500-
...SOUTHEAST COLORADO...

CITY           SKY/WX    TMP DP  RH WIND       PRES   REMARKS
PUEBLO         CLOUDY    54  48  80 NW6       29.96R
LA JUNTA       PTCLDY    58  51  78 N8        29.94R
LAMAR          PTCLDY    55  53  93 CALM      29.91R
SPRINGFIELD      N/A     53  46  77 NW5       29.93R
$$



USA.gov is the U.S. government's official web portal to all federal, state and local government web resources and services.